Date,TemperatureHighF,TemperatureAvgF,TemperatureLowF,DewpointHighF,DewpointAvgF,DewpointLowF,HumidityHigh,HumidityAvg,HumidityLow,PressureMaxIn,PressureMinIn,WindSpeedMaxMPH,WindSpeedAvgMPH,GustSpeedMaxMPH,PrecipitationSumIn
2014-1-1,44.0,30.5,20.0,31.0,25.2,18.0,95,82,58,0.00,40.00,8,4,11,0.00
2014-1-2,36.0,28.0,25.0,34.0,27.4,24.0,100,97,92,0.00,40.00,6,3,14,0.00
2014-1-3,45.0,36.3,20.0,34.0,21.9,15.0,92,57,38,0.00,40.00,19,7,29,0.00
2014-1-4,40.0,24.4,14.0,22.0,13.6,-99.9,86,68,37,0.00,40.00,7,5,11,0.00
2014-1-5,43.0,25.8,14.0,16.0,12.0,8.0,84,58,28,0.00,40.00,8,5,11,0.00
2014-1-6,37.0,25.4,15.0,16.0,11.1,6.0,70,55,33,0.00,40.00,6,3,8,0.00
2014-1-7,32.0,27.9,24.0,28.0,23.9,16.0,99,85,63,0.00,40.00,5,2,8,0.02
2014-1-8,30.0,27.8,26.0,29.0,27.8,26.0,100,99,98,0.00,40.00,0,0,0,0.01
2014-1-9,38.0,30.5,22.0,32.0,27.9,21.0,100,90,78,0.00,40.00,19,5,28,0.12
2014-1-10,51.0,44.8,40.0,37.0,30.4,26.0,79,58,41,0.00,40.00,25,13,38,0.02
2014-1-11,53.0,42.7,36.0,40.0,32.5,-99.9,93,71,56,0.00,40.00,31,20,50,0.04
2014-1-12,51.0,42.1,34.0,34.0,29.9,23.0,73,62,51,0.00,40.00,21,12,32,0.02
2014-1-13,53.0,45.9,37.0,34.0,32.0,29.0,83,59,45,0.00,40.00,15,8,23,0.00
2014-1-14,53.0,40.0,31.0,36.0,32.3,29.0,91,76,47,0.00,40.00,10,4,16,0.00
2014-1-15,57.0,37.6,28.0,33.0,27.6,24.0,90,70,39,0.00,40.00,8,5,15,0.00
2014-1-16,49.0,32.8,24.0,34.0,27.2,22.0,95,81,56,0.00,40.00,6,4,9,0.00
2014-1-17,39.0,28.0,18.0,33.0,25.7,16.0,100,91,76,0.00,40.00,8,4,13,0.00
2014-1-18,29.0,25.8,22.0,29.0,24.1,-99.9,99,96,95,0.00,40.00,3,2,6,0.00
2014-1-19,29.0,26.8,25.0,29.0,26.6,24.0,99,98,97,0.00,40.00,0,0,5,0.00
2014-1-20,29.0,27.0,26.0,29.0,26.9,25.0,98,98,97,0.00,40.00,0,0,0,0.00
2014-1-21,27.0,25.8,25.0,26.0,25.2,24.0,98,97,96,0.00,40.00,0,0,0,0.00
2014-1-22,30.0,26.4,24.0,30.0,26.0,23.0,100,98,97,0.00,40.00,0,0,0,0.00
2014-1-23,31.0,28.8,27.0,31.0,28.8,27.0,100,99,98,0.00,40.00,3,0,5,0.01
2014-1-24,29.0,27.8,26.0,29.0,27.8,26.0,100,100,99,0.00,40.00,2,0,4,0.01
2014-1-25,26.0,24.8,24.0,26.0,23.4,-99.9,99,98,97,0.00,40.00,1,0,4,0.00
2014-1-26,26.0,24.0,22.0,25.0,23.2,21.0,98,97,95,0.00,40.00,0,0,0,0.00
2014-1-27,28.0,26.0,24.0,28.0,26.0,24.0,100,99,98,0.00,40.00,0,0,0,0.10
2014-1-28,29.0,28.1,27.0,29.0,22.8,-99.9,100,96,98,0.00,40.00,1,0,2,0.00
2014-1-29,33.0,23.8,28.0,33.0,3.2,-99.9,100,79,99,0.00,40.00,4,2,7,0.19
2014-1-30,43.0,33.6,28.0,38.0,30.7,26.0,100,90,68,0.00,40.00,7,2,11,0.12
2014-1-31,41.0,32.1,26.0,32.0,29.1,26.0,100,90,68,0.00,40.00,5,2,8,0.01
2014-2-1,34.0,29.8,26.0,31.0,25.9,-99.9,100,90,78,0.00,40.00,7,4,11,0.00
2014-2-2,30.0,26.3,21.0,27.0,20.1,17.0,96,78,65,0.00,40.00,9,6,15,0.00
2014-2-3,28.0,24.9,23.0,22.0,16.6,10.0,94,72,49,0.00,40.00,13,7,19,0.00
2014-2-4,23.0,17.4,12.0,18.0,4.2,-4.0,81,57,43,0.00,40.00,18,13,31,0.00
2014-2-5,13.0,9.4,6.0,-3.0,-9.7,-14.0,50,41,34,0.00,40.00,24,14,38,0.00
2014-2-6,11.0,8.7,6.0,5.0,-4.7,-10.0,81,55,41,0.00,40.00,15,11,24,0.00
2014-2-7,22.0,12.9,-1.0,10.0,6.5,-7.0,86,75,59,0.00,40.00,15,7,24,0.07
2014-2-8,21.0,17.0,13.0,17.0,11.6,8.0,92,80,63,0.00,40.00,12,7,24,0.03
2014-2-9,28.0,21.2,18.0,22.0,18.2,16.0,93,88,79,0.00,40.00,4,1,9,0.18
2014-2-10,24.0,21.7,18.0,23.0,20.7,16.0,99,96,92,0.00,40.00,5,3,10,0.02
2014-2-11,39.0,32.3,21.0,37.0,30.0,20.0,100,92,74,0.00,40.00,16,6,21,0.16
2014-2-12,52.0,43.0,33.0,38.0,31.9,26.0,97,68,38,0.00,40.00,23,11,32,0.16
2014-2-13,50.0,42.9,34.0,37.0,29.3,26.0,82,60,41,0.00,40.00,18,11,33,0.01
2014-2-14,52.0,40.7,32.0,39.0,33.3,27.0,100,77,52,0.00,40.00,16,7,26,0.31
2014-2-15,36.0,32.5,29.0,35.0,29.6,-99.9,100,94,81,0.00,40.00,9,4,17,0.19
2014-2-16,47.0,38.9,32.0,33.0,27.2,21.0,87,64,37,0.00,40.00,26,14,38,0.03
2014-2-17,49.0,39.9,30.0,37.0,31.3,24.0,94,73,46,0.00,40.00,24,14,37,0.03
2014-2-18,46.0,37.7,28.0,37.0,29.1,19.0,91,72,52,0.00,40.00,19,10,31,0.01
2014-2-19,44.0,35.5,28.0,28.0,23.2,19.0,86,62,39,0.00,40.00,17,10,26,0.00
2014-2-20,49.0,40.3,29.0,28.0,24.9,22.0,76,56,38,0.00,40.00,20,12,31,0.00
2014-2-21,48.0,36.8,30.0,28.0,22.9,19.0,76,58,34,0.00,40.00,14,7,22,0.00
2014-2-22,39.0,30.9,22.0,28.0,22.0,-99.9,90,73,51,0.00,40.00,7,4,12,0.00
2014-2-23,36.0,32.0,28.0,30.0,27.4,24.0,92,83,71,0.00,40.00,9,4,13,0.00
2014-2-24,31.0,28.9,28.0,27.0,25.4,24.0,92,86,78,0.00,40.00,13,10,19,0.00
2014-2-25,32.0,29.4,27.0,25.0,21.0,17.0,89,72,54,0.00,40.00,6,0,11,0.00
2014-2-26,40.0,33.7,27.0,22.0,17.3,14.0,64,51,40,0.00,40.00,12,4,18,0.00
2014-2-27,41.0,34.5,28.0,28.0,24.0,19.0,87,65,52,0.00,40.00,7,3,11,0.00
2014-2-28,45.0,36.4,26.0,29.0,27.1,23.0,93,71,52,0.00,40.00,15,7,31,0.00
2014-3-1,33.0,22.0,16.0,24.0,4.8,-99.9,70,50,37,0.00,40.00,20,14,31,0.00
2014-3-2,24.0,20.6,17.0,20.0,14.2,9.0,96,76,66,0.00,40.00,7,5,12,0.00
2014-3-3,42.0,28.0,16.0,35.0,25.1,14.0,99,89,75,0.00,40.00,9,3,14,0.10
2014-3-4,58.0,44.5,29.0,39.0,34.8,27.0,99,71,45,0.00,40.00,12,7,20,0.01
2014-3-5,59.0,50.8,45.0,51.0,45.3,38.0,100,82,60,0.00,40.00,15,10,26,0.47
2014-3-6,52.0,46.9,39.0,45.0,35.1,29.0,89,64,50,0.00,40.00,30,17,44,0.01
2014-3-7,56.0,42.8,32.0,35.0,31.9,29.0,90,68,38,0.00,40.00,12,5,16,0.00
2014-3-8,54.0,41.9,31.0,44.0,33.2,-99.9,96,76,51,0.00,40.00,16,7,24,0.00
2014-3-9,58.0,50.8,44.0,45.0,41.0,37.0,91,70,50,0.00,40.00,14,5,24,0.00
2014-3-10,52.0,45.2,35.0,38.0,31.4,26.0,86,60,37,0.00,40.00,22,12,35,0.00
2014-3-11,55.0,41.5,29.0,30.0,24.6,19.0,85,55,26,0.00,40.00,9,5,17,0.00
2014-3-12,58.0,40.4,23.0,28.0,24.4,20.0,88,58,27,0.00,40.00,11,4,14,0.00
2014-3-13,60.0,45.2,32.0,33.0,29.7,27.0,81,58,29,0.00,40.00,7,5,14,0.00
2014-3-14,56.0,47.0,36.0,42.0,31.0,24.0,77,56,31,0.00,40.00,27,13,39,0.00
2014-3-15,61.0,43.2,27.0,34.0,26.9,-99.9,88,59,31,0.00,40.00,9,6,17,0.00
2014-3-16,61.0,50.6,40.0,42.0,36.0,-99.9,77,60,47,0.00,40.00,20,12,30,0.00
2014-3-17,47.0,43.3,37.0,27.0,20.3,16.0,59,41,30,0.00,40.00,24,20,40,0.00
2014-3-18,52.0,39.6,25.0,25.0,22.3,17.0,81,52,35,0.00,40.00,8,4,13,0.00
2014-3-19,56.0,40.8,28.0,32.0,25.8,16.0,83,58,30,0.00,40.00,20,9,35,0.00
2014-3-20,47.0,35.6,23.0,20.0,15.2,-99.9,70,47,29,0.00,40.00,13,6,23,0.00
2014-3-21,48.0,33.8,21.0,22.0,14.5,-99.9,79,51,23,0.00,40.00,7,5,18,0.00
2014-3-22,54.0,36.0,18.0,20.0,13.7,-99.9,80,46,23,0.00,40.00,11,6,19,0.00
2014-3-23,57.0,42.1,28.0,30.0,25.2,15.0,86,55,32,0.00,40.00,10,6,15,0.00
2014-3-24,58.0,51.2,37.0,25.0,23.6,23.0,57,36,26,0.00,40.00,11,7,18,0.00
2014-3-25,55.0,44.9,36.0,41.0,29.1,23.0,79,55,33,0.00,40.00,22,8,36,0.03
2014-3-26,51.0,42.3,34.0,34.0,32.5,29.0,83,69,52,0.00,40.00,10,6,18,0.03
2014-3-27,57.0,43.6,34.0,36.0,32.2,29.0,89,67,36,0.00,40.00,14,6,27,0.00
2014-3-28,50.0,41.7,31.0,45.0,37.8,28.0,93,86,74,0.00,40.00,15,7,23,0.09
2014-3-29,53.0,43.5,39.0,40.0,31.3,-99.9,85,67,47,0.00,40.00,23,12,37,0.01
2014-3-30,54.0,40.9,28.0,33.0,28.2,22.0,94,65,30,0.00,40.00,14,6,23,0.01
2014-3-31,53.0,40.8,22.0,28.0,25.6,20.0,90,58,35,0.00,40.00,11,7,20,0.00
2014-4-1,57.0,50.2,40.0,31.0,26.7,23.0,66,42,27,0.00,40.00,14,8,22,0.00
2014-4-2,61.0,46.3,30.0,30.0,24.3,21.0,80,45,22,0.00,40.00,15,6,24,0.00
2014-4-3,57.0,43.9,29.0,32.0,27.6,23.0,78,55,33,0.00,40.00,16,8,25,0.00
2014-4-4,58.0,45.2,32.0,33.0,29.2,20.0,83,57,25,0.00,40.00,16,8,26,0.00
2014-4-5,57.0,42.9,28.0,39.0,29.8,-99.9,87,66,39,0.00,40.00,15,6,23,0.00
2014-4-6,63.0,49.7,34.0,38.0,35.4,32.0,93,62,37,0.00,40.00,12,5,19,0.00
2014-4-7,71.0,54.3,35.0,40.0,36.4,33.0,94,56,28,0.00,40.00,12,5,19,0.00
2014-4-8,73.0,56.0,37.0,41.0,36.4,30.0,85,53,22,0.00,40.00,18,7,26,0.00
2014-4-9,61.0,50.4,42.0,40.0,23.1,8.0,61,38,13,0.00,40.00,15,9,29,0.00
2014-4-10,65.0,51.2,32.0,27.0,24.0,18.0,68,36,23,0.00,40.00,8,5,14,0.00
2014-4-11,65.0,50.0,33.0,33.0,26.5,18.0,62,42,27,0.00,40.00,20,8,31,0.00
2014-4-12,63.0,48.3,33.0,32.0,24.2,-99.9,79,45,22,0.00,40.00,11,6,24,0.00
2014-4-13,62.0,49.5,35.0,25.0,18.5,14.0,45,30,19,0.00,40.00,11,6,19,0.00
2014-4-14,63.0,41.7,26.0,30.0,15.0,10.0,51,37,16,0.00,40.00,8,5,13,0.00
2014-4-15,60.0,50.7,43.0,31.0,23.5,18.0,49,36,20,0.00,40.00,25,13,37,0.00
2014-4-16,59.0,49.2,40.0,39.0,33.3,26.0,72,55,40,0.00,40.00,11,5,17,0.00
2014-4-17,57.0,48.9,44.0,45.0,40.1,32.0,85,72,56,0.00,40.00,17,8,26,0.00
2014-4-18,55.0,44.3,34.0,32.0,26.3,22.0,67,51,27,0.00,40.00,14,7,22,0.00
2014-4-19,61.0,43.4,26.0,36.0,25.6,-99.9,78,54,26,0.00,40.00,19,9,32,0.00
2014-4-20,61.0,48.4,30.0,30.0,27.1,24.0,84,47,27,0.00,40.00,11,6,19,0.00
2014-4-21,68.0,52.1,38.0,47.0,31.1,27.0,94,49,24,0.00,40.00,9,5,23,0.23
2014-4-22,55.0,46.3,38.0,45.0,33.8,23.0,98,67,28,0.00,40.00,16,10,27,0.82
2014-4-23,52.0,45.1,35.0,41.0,35.7,31.0,86,71,54,0.00,40.00,16,9,26,0.02
2014-4-24,61.0,50.7,42.0,42.0,37.0,28.0,87,63,31,0.00,40.00,20,13,29,0.00
2014-4-25,58.0,46.5,38.0,34.0,30.3,24.0,83,56,28,0.00,40.00,13,5,19,0.00
2014-4-26,53.0,41.1,28.0,32.0,28.1,23.0,92,64,31,0.00,40.00,10,4,19,0.00
2014-4-28,59.0,50.4,41.0,24.0,21.5,20.0,45,34,22,0.00,40.00,7,5,12,0.00
2014-4-29,67.0,50.3,32.0,27.0,23.5,20.0,69,39,17,0.00,40.00,11,6,20,0.00
2014-4-30,74.0,54.6,37.0,29.0,26.7,23.0,65,38,15,0.00,40.00,12,6,18,0.00
2014-5-1,79.0,59.8,39.0,38.0,31.9,27.0,65,39,18,0.00,40.00,10,5,16,0.00
2014-5-2,79.0,62.8,44.0,40.0,33.9,29.0,73,39,18,0.00,40.00,11,6,21,0.00
2014-5-3,64.0,55.2,48.0,42.0,33.2,-99.9,61,46,31,0.00,40.00,17,12,28,0.00
2014-5-4,61.0,51.6,44.0,40.0,37.0,35.0,73,58,39,0.00,40.00,22,15,35,0.00
2014-5-5,62.0,48.9,32.0,38.0,34.1,29.0,88,59,29,0.00,40.00,11,6,21,0.00
2014-5-6,65.0,53.1,33.0,37.0,32.9,27.0,88,50,24,0.00,40.00,17,7,26,0.00
2014-5-13,77.0,66.7,53.0,33.0,29.0,25.0,38,26,15,0.00,40.00,8,5,11,0.00
2014-5-14,83.0,65.3,42.0,38.0,32.9,28.0,60,33,17,0.00,40.00,9,4,14,0.00
2014-5-15,86.0,67.7,48.0,43.0,38.2,34.0,65,38,17,0.00,40.00,7,3,14,0.00
2014-5-16,81.0,67.2,55.0,49.0,39.5,30.0,76,41,16,0.00,40.00,15,7,23,0.00
2014-5-17,71.0,57.3,45.0,40.0,35.4,-99.9,75,48,28,0.00,40.00,15,7,22,0.00
2014-5-18,68.0,53.8,38.0,47.0,37.4,33.0,83,57,29,0.00,40.00,15,7,29,0.02
2014-5-19,69.0,54.6,42.0,40.0,31.6,-99.9,83,49,28,0.00,40.00,14,6,19,0.02
2014-5-20,77.0,59.2,40.0,41.0,34.5,-99.9,83,47,18,0.00,40.00,15,6,24,0.00
2014-5-21,80.0,63.4,42.0,43.0,37.1,33.0,83,43,20,0.00,40.00,18,7,28,0.00
2014-5-22,84.0,66.5,49.0,46.0,39.6,-99.9,71,42,21,0.00,40.00,13,6,29,0.00
2014-5-23,72.0,63.8,53.0,49.0,45.1,42.0,71,52,39,0.00,40.00,14,7,22,0.00
2014-5-24,75.0,58.9,39.0,44.0,34.5,-99.9,86,47,21,0.00,40.00,16,6,24,0.00
2014-5-25,72.0,57.2,43.0,44.0,36.7,31.0,74,50,24,0.00,40.00,13,6,21,0.00
2014-5-26,65.0,55.7,45.0,51.0,40.9,36.0,85,60,38,0.00,40.00,15,7,24,0.10
2014-5-27,70.0,54.7,36.0,36.0,32.2,25.0,85,48,19,0.00,40.00,14,6,20,0.01
2014-5-28,65.0,54.4,45.0,37.0,32.4,27.0,63,45,24,0.00,40.00,17,10,30,0.00
2014-5-29,70.0,53.8,37.0,37.0,34.3,30.0,86,53,23,0.00,40.00,13,6,20,0.00
2014-5-30,77.0,58.5,38.0,37.0,33.7,29.0,79,45,19,0.00,40.00,15,7,24,0.00
2014-5-31,78.0,65.3,49.0,42.0,34.8,-99.9,66,36,16,0.00,40.00,18,7,25,0.00
2014-6-1,79.0,60.5,44.0,42.0,36.7,30.0,74,46,18,0.00,40.00,8,5,16,0.00
2014-6-2,84.0,77.6,65.0,45.0,39.9,32.0,47,27,16,0.00,40.00,14,8,22,0.00
2014-6-3,81.0,68.0,53.0,46.0,40.0,27.0,72,40,14,0.00,40.00,21,9,31,0.00
2014-6-4,82.0,64.6,45.0,41.0,33.7,27.0,76,38,14,0.00,40.00,18,8,26,0.00
2014-6-5,77.0,64.1,48.0,38.0,32.7,26.0,61,34,16,0.00,40.00,12,6,23,0.00
2014-6-6,78.0,65.0,46.0,37.0,26.5,16.0,61,29,10,0.00,40.00,16,7,25,0.00
2014-6-7,81.0,65.7,50.0,43.0,34.2,-99.9,55,34,21,0.00,40.00,14,8,26,0.00
2014-6-8,83.0,67.3,49.0,44.0,40.5,37.0,71,41,20,0.00,40.00,19,7,26,0.00
2014-6-9,80.0,67.0,52.0,47.0,36.9,21.0,76,38,11,0.00,40.00,16,10,29,0.00
2014-6-10,75.0,63.6,48.0,39.0,35.5,31.0,68,38,20,0.00,40.00,20,11,32,0.00
2014-6-11,77.0,62.3,43.0,39.0,35.4,30.0,74,41,18,0.00,40.00,12,6,26,0.00
2014-6-12,79.0,65.3,50.0,45.0,36.2,30.0,56,36,18,0.00,40.00,22,8,31,0.00
2014-6-13,58.0,51.9,43.0,51.0,42.2,35.0,89,70,46,0.00,40.00,11,6,18,0.14
2014-6-14,72.0,55.9,40.0,43.0,38.3,-99.9,91,58,32,0.00,40.00,17,7,28,0.04
2014-6-15,68.0,56.7,45.0,41.0,37.3,32.0,81,52,26,0.00,40.00,17,8,30,0.00
2014-6-16,61.0,51.4,40.0,42.0,34.5,30.0,81,54,31,0.00,40.00,16,8,26,0.10
2014-6-17,70.0,57.1,45.0,45.0,40.9,37.0,91,59,34,0.00,40.00,14,7,23,0.03
2014-6-18,79.0,62.4,42.0,43.0,39.5,30.0,85,47,22,0.00,40.00,15,6,22,0.00
2014-6-19,82.0,64.5,43.0,45.0,37.2,29.0,72,41,20,0.00,40.00,11,7,19,0.00
2014-6-20,74.0,62.7,50.0,47.0,37.9,26.0,83,44,17,0.00,40.00,17,10,28,0.00
2014-6-21,74.0,59.4,40.0,36.0,30.9,-99.9,71,38,22,0.00,40.00,10,6,18,0.00
2014-6-22,84.0,66.5,44.0,38.0,33.5,27.0,65,33,16,0.00,40.00,10,5,19,0.00
2014-6-23,88.0,70.4,50.0,48.0,38.1,31.0,57,34,17,0.00,40.00,12,6,24,0.00
2014-6-24,80.0,68.5,57.0,48.0,42.0,30.0,68,41,17,0.00,40.00,16,10,36,0.00
2014-6-25,80.0,67.9,51.0,46.0,41.5,34.0,71,42,20,0.00,40.00,12,7,21,0.00
2014-6-26,76.0,66.3,56.0,58.0,48.8,45.0,79,55,34,0.00,40.00,14,6,29,0.09
2014-6-27,76.0,63.2,52.0,52.0,48.3,43.0,88,60,36,0.00,40.00,17,9,26,0.01
2014-6-28,75.0,61.0,50.0,48.0,41.4,-99.9,79,53,29,0.00,40.00,13,7,23,0.00
2014-6-29,74.0,63.7,44.0,46.0,39.5,34.0,89,44,25,0.00,40.00,17,11,28,0.00
2014-6-30,82.0,65.8,44.0,41.0,38.9,35.0,77,42,19,0.00,40.00,9,6,19,0.00
2014-7-1,90.0,73.0,51.0,42.0,37.4,34.0,53,30,16,0.00,40.00,16,7,25,0.00
2014-7-2,93.0,77.6,62.0,49.0,41.0,35.0,42,29,16,0.00,40.00,11,6,17,0.00
2014-7-3,86.0,70.5,55.0,49.0,39.5,28.0,71,38,13,0.00,40.00,16,8,24,0.00
2014-7-4,86.0,69.2,53.0,45.0,36.9,22.0,60,36,10,0.00,40.00,10,6,20,0.00
2014-7-5,88.0,72.5,61.0,50.0,34.3,-99.9,50,28,14,0.00,40.00,12,6,19,0.00
2014-7-6,92.0,77.2,64.0,52.0,48.8,44.0,58,39,20,0.00,40.00,19,8,28,0.00
2014-7-7,92.0,79.5,63.0,54.0,50.2,45.0,69,39,20,0.00,40.00,9,6,18,0.00
2014-7-8,98.0,81.3,60.0,51.0,44.8,30.0,62,32,12,0.00,40.00,13,6,20,0.00
2014-7-9,96.0,79.9,65.0,42.0,35.8,29.0,39,23,10,0.00,40.00,15,7,26,0.00
2014-7-10,94.0,79.5,56.0,39.0,32.1,27.0,42,21,9,0.00,40.00,14,7,21,0.00
2014-7-11,95.0,80.5,59.0,43.0,34.7,27.0,47,22,9,0.00,40.00,10,6,34,0.00
2014-7-12,99.0,81.2,62.0,44.0,36.8,34.0,41,22,11,0.00,40.00,9,5,17,0.00
2014-7-13,96.0,82.2,62.0,49.0,41.9,35.0,47,26,13,0.00,40.00,14,6,24,0.00
2014-7-14,98.0,83.5,65.0,54.0,45.7,42.0,57,30,15,0.00,40.00,15,7,22,0.00
2014-7-15,101.0,82.0,64.0,55.0,48.8,42.0,66,38,15,0.00,40.00,12,6,21,0.00
2014-7-16,102.0,84.8,61.0,44.0,35.2,26.0,46,21,8,0.00,40.00,17,6,28,0.00
2014-7-17,94.0,79.5,60.0,47.0,39.5,27.0,42,26,11,0.00,40.00,23,12,34,0.00
2014-7-18,89.0,74.5,59.0,47.0,41.6,35.0,47,32,16,0.00,40.00,25,13,34,0.00
2014-7-19,90.0,75.7,64.0,55.0,49.9,46.0,60,42,23,0.00,40.00,16,11,27,0.00
2014-7-20,79.0,64.3,57.0,55.0,47.7,39.0,75,57,25,0.00,40.00,14,7,24,0.00
2014-7-21,80.0,68.4,53.0,41.0,37.8,34.0,58,35,20,0.00,40.00,17,8,31,0.00
2014-7-22,79.0,68.9,62.0,57.0,48.8,34.0,81,51,26,0.00,40.00,8,4,14,0.02
2014-7-23,73.0,63.3,52.0,59.0,49.6,38.0,86,62,46,0.00,40.00,14,8,28,0.04
2014-7-24,74.0,59.3,48.0,47.0,42.4,38.0,72,55,32,0.00,40.00,19,10,27,0.01
2014-7-25,81.0,66.6,44.0,46.0,41.9,38.0,79,45,23,0.00,40.00,8,6,18,0.00
2014-7-26,88.0,68.7,50.0,49.0,40.6,34.0,76,42,16,0.00,40.00,9,6,18,0.00
2014-7-27,92.0,76.4,53.0,48.0,44.2,39.0,72,37,16,0.00,40.00,9,6,16,0.00
2014-7-28,100.0,82.3,60.0,52.0,45.1,34.0,64,32,10,0.00,40.00,9,5,18,0.00
2014-7-29,101.0,83.4,59.0,47.0,39.9,26.0,53,26,8,0.00,40.00,13,6,21,0.00
2014-7-30,100.0,79.4,62.0,44.0,36.5,25.0,49,26,8,0.00,40.00,15,6,22,0.00
2014-7-31,98.0,77.6,58.0,43.0,34.8,28.0,46,25,9,0.00,40.00,10,6,17,0.00
2014-8-1,97.0,79.8,65.0,52.0,44.8,36.0,54,32,12,0.00,40.00,11,5,16,0.00
2014-8-2,97.0,76.6,60.0,50.0,44.6,42.0,57,33,15,0.00,40.00,13,7,20,0.00
2014-8-3,95.0,79.6,60.0,56.0,49.8,43.0,73,40,18,0.00,40.00,12,5,20,0.00
2014-8-4,98.0,81.0,62.0,52.0,44.3,37.0,56,31,15,0.00,40.00,15,7,24,0.00
2014-8-5,98.0,81.9,60.0,40.0,35.6,32.0,39,21,11,0.00,40.00,14,6,25,0.00
2014-8-6,92.0,72.9,54.0,47.0,41.4,35.0,54,34,15,0.00,40.00,9,6,23,0.00
2014-8-7,90.0,80.3,64.0,47.0,40.8,36.0,44,26,17,0.00,40.00,15,8,23,0.00
2014-8-8,87.0,71.8,56.0,44.0,37.7,30.0,56,32,13,0.00,40.00,16,8,24,0.00
2014-8-9,89.0,67.9,51.0,43.0,37.9,32.0,67,37,14,0.00,40.00,9,5,15,0.00
2014-8-10,96.0,80.2,55.0,47.0,38.6,21.0,54,26,12,0.00,40.00,8,5,15,0.00
2014-8-11,99.0,80.1,59.0,46.0,33.4,20.0,36,20,11,0.00,40.00,13,6,18,0.00
2014-8-12,92.0,78.4,63.0,60.0,52.4,39.0,90,46,19,0.00,40.00,19,8,37,0.06
2014-8-13,82.0,67.6,55.0,59.0,55.3,49.0,94,68,34,0.00,40.00,14,5,25,0.05
2014-8-14,73.0,64.7,55.0,58.0,54.5,51.0,86,71,51,0.00,40.00,7,4,15,0.00
2014-8-15,79.0,66.9,55.0,57.0,54.2,50.0,94,67,37,0.00,40.00,10,4,22,0.00
2014-8-16,85.0,67.8,56.0,53.0,49.9,49.0,82,55,31,0.00,40.00,13,4,19,0.00
2014-8-17,89.0,74.4,60.0,54.0,52.3,48.0,75,49,25,0.00,40.00,11,5,21,0.00
2014-8-18,92.0,77.3,57.0,55.0,51.1,47.0,80,45,25,0.00,40.00,9,5,26,0.00
2014-8-19,90.0,75.6,62.0,54.0,47.6,42.0,53,39,23,0.00,40.00,17,9,25,0.00
2014-8-20,83.0,70.8,56.0,51.0,47.2,38.0,74,46,22,0.00,40.00,13,8,24,0.00
2014-8-21,82.0,67.8,49.0,48.0,41.5,31.0,75,43,20,0.00,40.00,12,6,19,0.00
2014-8-22,78.0,63.9,55.0,52.0,44.3,36.0,72,51,28,0.00,40.00,16,6,25,0.03
2014-8-23,79.0,64.3,55.0,51.0,44.6,41.0,83,51,26,0.00,40.00,10,6,19,0.03
2014-8-24,78.0,62.2,51.0,51.0,46.6,42.0,81,59,31,0.00,40.00,16,7,29,0.00
2014-8-25,82.0,64.5,47.0,49.0,45.3,43.0,86,55,26,0.00,40.00,10,5,16,0.00
2014-8-26,88.0,70.0,50.0,49.0,44.5,41.0,74,44,21,0.00,40.00,8,5,16,0.00
2014-8-27,93.0,74.9,57.0,53.0,47.8,40.0,63,41,23,0.00,40.00,14,6,21,0.00
2014-8-28,85.0,72.4,57.0,51.0,45.4,39.0,75,42,20,0.00,40.00,15,8,25,0.00
2014-8-29,81.0,66.2,52.0,49.0,45.8,43.0,78,50,26,0.00,40.00,16,8,24,0.00
2014-8-30,74.0,61.7,51.0,49.0,43.8,42.0,74,52,34,0.00,40.00,16,6,22,0.00
2014-8-31,73.0,60.7,47.0,46.0,39.4,36.0,82,49,28,0.00,40.00,16,8,23,0.00
2014-9-1,78.0,62.5,42.0,45.0,40.9,36.0,79,49,27,0.00,40.00,13,6,22,0.00
2014-9-2,78.0,61.3,45.0,45.0,42.2,37.0,86,53,28,0.00,40.00,21,9,33,0.00
2014-9-3,70.0,57.5,43.0,41.0,38.0,35.0,73,51,29,0.00,40.00,22,10,33,0.00
2014-9-4,75.0,59.6,40.0,44.0,38.2,34.0,87,50,24,0.00,40.00,9,5,21,0.00
2014-9-5,79.0,61.2,44.0,39.0,34.5,30.0,68,41,19,0.00,40.00,11,6,21,0.00
2014-9-6,85.0,63.6,46.0,37.0,32.4,30.0,58,34,16,0.00,40.00,10,5,17,0.00
2014-9-7,90.0,66.3,45.0,36.0,32.2,27.0,54,33,14,0.00,40.00,8,5,20,0.00
2014-9-8,82.0,66.5,47.0,46.0,36.2,28.0,51,35,17,0.00,40.00,16,8,25,0.00
2014-9-9,76.0,62.9,46.0,46.0,42.1,39.0,80,49,28,0.00,40.00,18,8,27,0.00
2014-9-10,70.0,60.3,48.0,42.0,31.1,20.0,78,37,20,0.00,40.00,17,10,28,0.00
2014-9-11,64.0,53.6,44.0,28.0,23.2,17.0,43,31,20,0.00,40.00,20,12,37,0.00
2014-9-12,71.0,56.5,41.0,24.0,19.3,15.0,35,24,15,0.00,40.00,13,8,22,0.00
2014-9-13,76.0,65.1,47.0,28.0,24.8,15.0,38,21,16,0.00,40.00,13,8,21,0.00
2014-9-14,80.0,58.1,37.0,33.0,27.1,21.0,51,33,18,0.00,40.00,8,5,14,0.00
2014-9-15,85.0,61.7,42.0,35.0,28.7,23.0,50,32,14,0.00,40.00,7,4,15,0.00
2014-9-16,85.0,66.9,54.0,38.0,32.3,25.0,40,29,16,0.00,40.00,9,5,14,0.00
2014-9-17,83.0,67.4,54.0,47.0,42.1,38.0,57,41,22,0.00,40.00,8,4,18,0.00
2014-9-18,74.0,66.5,58.0,49.0,46.1,42.0,65,48,38,0.00,40.00,14,6,25,0.00
2014-9-19,81.0,66.5,53.0,51.0,47.3,44.0,80,53,29,0.00,40.00,10,6,20,0.00
2014-9-20,82.0,65.0,48.0,50.0,45.5,43.0,87,53,28,0.00,40.00,11,6,21,0.00
2014-9-21,88.0,70.0,55.0,45.0,40.6,39.0,54,37,20,0.00,40.00,7,5,18,0.00
2014-9-22,83.0,67.1,55.0,52.0,43.7,38.0,63,44,27,0.00,40.00,13,5,24,0.00
2014-9-23,75.0,64.9,57.0,57.0,46.9,39.0,93,55,33,0.00,40.00,16,4,21,0.02
2014-9-24,61.0,58.1,55.0,57.0,53.8,51.0,96,86,70,0.00,40.00,13,6,21,0.23
2014-9-25,63.0,55.4,48.0,54.0,51.3,46.0,96,86,62,0.00,40.00,10,4,16,0.40
2014-9-26,67.0,55.4,42.0,49.0,46.5,41.0,98,75,50,0.00,40.00,11,4,17,0.01
2014-9-27,74.0,59.2,46.0,50.0,44.6,40.0,92,62,30,0.00,40.00,13,7,23,0.00
2014-9-28,74.0,61.3,50.0,49.0,44.4,41.0,82,58,32,0.00,40.00,14,6,23,0.00
2014-9-29,74.0,58.6,45.0,49.0,43.8,39.0,89,62,30,0.00,40.00,11,5,16,0.00
2014-9-30,65.0,55.9,44.0,42.0,36.4,34.0,75,50,31,0.00,40.00,20,10,37,0.00
2014-10-1,67.0,53.0,35.0,38.0,35.3,32.0,88,54,33,0.00,40.00,10,6,20,0.00
2014-10-2,62.0,52.7,44.0,39.0,34.6,30.0,72,52,33,0.00,40.00,14,6,19,0.00
2014-10-3,72.0,53.1,37.0,33.0,30.4,28.0,72,45,21,0.00,40.00,9,5,15,0.00
2014-10-4,78.0,59.5,43.0,45.0,37.8,31.0,67,45,28,0.00,40.00,6,4,11,0.00
2014-10-5,82.0,64.8,50.0,49.0,45.7,43.0,80,53,27,0.00,40.00,8,5,13,0.00
2014-10-6,87.0,64.9,50.0,51.0,46.2,42.0,75,55,26,0.00,40.00,9,5,15,0.00
2014-10-7,84.0,68.1,49.0,51.0,47.3,43.0,81,52,26,0.00,40.00,8,5,14,0.00
2014-10-8,74.0,59.1,45.0,49.0,42.7,37.0,87,59,26,0.00,40.00,8,5,14,0.00
2014-10-9,77.0,57.2,40.0,43.0,39.5,36.0,88,58,25,0.00,40.00,7,5,13,0.00
2014-10-10,76.0,59.9,39.0,44.0,38.6,33.0,84,49,24,0.00,40.00,9,5,20,0.00
2014-10-11,69.0,56.8,49.0,42.0,38.1,34.0,66,50,31,0.00,40.00,22,9,33,0.00
2014-10-12,66.0,53.6,43.0,38.0,35.8,33.0,75,53,32,0.00,40.00,15,6,25,0.00
2014-10-13,70.0,56.1,42.0,38.0,35.6,31.0,71,49,24,0.00,40.00,18,7,30,0.00
2014-10-14,62.0,55.7,49.0,48.0,41.9,36.0,90,62,38,0.00,40.00,21,9,34,0.08
2014-10-15,58.0,49.9,45.0,46.0,42.6,38.0,97,78,48,0.00,40.00,24,11,36,0.05
2014-10-16,63.0,49.6,41.0,42.0,39.0,37.0,90,70,38,0.00,40.00,11,5,18,0.00
2014-10-17,59.0,51.0,43.0,47.0,41.6,38.0,89,71,51,0.00,40.00,11,5,18,0.04
2014-10-18,67.0,53.0,41.0,53.0,47.1,40.0,99,81,57,0.00,40.00,13,5,21,0.06
2014-10-19,70.0,54.5,43.0,50.0,46.9,42.0,99,78,45,0.00,40.00,8,4,11,0.00
2014-10-20,59.0,50.1,44.0,52.0,46.1,42.0,97,87,69,0.00,40.00,10,5,18,0.06
2014-10-21,62.0,49.6,40.0,45.0,41.7,39.0,98,76,45,0.00,40.00,15,8,22,0.02
2014-10-22,58.0,53.9,47.0,49.0,43.7,39.0,79,69,58,0.00,40.00,19,13,30,0.01
2014-10-23,56.0,49.8,40.0,47.0,41.6,34.0,87,74,47,0.00,40.00,17,6,30,0.04
2014-10-24,53.0,43.8,37.0,44.0,38.9,34.0,95,84,63,0.00,40.00,7,4,12,0.19
2014-10-25,55.0,50.1,45.0,48.0,44.2,36.0,95,80,60,0.00,40.00,23,10,37,0.17
2014-10-26,54.0,46.6,39.0,37.0,34.0,31.0,78,62,45,0.00,40.00,20,10,28,0.00
2014-10-27,54.0,40.9,30.0,35.0,31.2,28.0,91,71,37,0.00,40.00,10,5,13,0.00
2014-10-28,54.0,45.7,41.0,45.0,40.4,33.0,98,82,66,0.00,40.00,11,4,15,0.14
2014-10-29,59.0,47.6,40.0,48.0,44.1,40.0,100,89,65,0.00,40.00,6,4,12,0.05
2014-10-30,53.0,49.6,48.0,49.0,47.2,46.0,98,92,84,0.00,40.00,7,4,11,0.07
2014-10-31,53.0,48.6,43.0,50.0,46.6,38.0,100,93,80,0.00,40.00,11,2,20,0.28
2014-11-1,53.0,44.3,39.0,39.0,35.0,31.0,89,70,50,0.00,40.00,16,8,26,0.01
2014-11-2,55.0,47.2,37.0,42.0,33.8,29.0,84,61,43,0.00,40.00,17,9,29,0.01
2014-11-3,55.0,48.6,41.0,46.0,42.9,39.0,95,82,70,0.00,40.00,18,8,29,0.01
2014-11-4,64.0,52.5,43.0,47.0,43.3,38.0,90,73,42,0.00,40.00,21,14,29,0.02
2014-11-5,53.0,46.7,39.0,47.0,41.3,35.0,98,82,57,0.00,40.00,6,3,9,0.03
2014-11-6,59.0,51.5,43.0,49.0,42.9,31.0,100,75,49,0.00,40.00,21,10,36,0.01
2014-11-7,56.0,42.5,30.0,34.0,31.5,27.0,88,67,38,0.00,40.00,7,5,11,0.01
2014-11-8,56.0,39.1,28.0,36.0,31.4,26.0,94,75,43,0.00,40.00,8,4,11,0.00
2014-11-9,59.0,44.3,35.0,40.0,34.1,30.0,90,69,38,0.00,40.00,20,8,33,0.01
2014-11-10,47.0,39.8,32.0,32.0,23.4,19.0,87,54,35,0.00,40.00,11,5,19,0.01
2014-11-11,38.0,27.3,21.0,22.0,6.0,-3.0,71,41,25,0.00,40.00,25,18,42,0.00
2014-11-12,28.0,21.8,16.0,1.0,-0.5,-3.0,49,37,25,0.00,40.00,19,12,29,0.00
2014-11-13,27.0,23.8,21.0,9.0,3.1,0.0,52,40,35,0.00,40.00,15,10,27,0.00